| time (UTC) | temp F | wind direction | speed MPH | gust MPH | rain 1hr in | rain 24hr in | rain mn in | humidity % | barometer mb |
| 20260509201437 | 66 | 226 | 5.0 | 12.0 | 0.00 | 0.18 | 0.18 | 67 | 1012.3 |
| 20260509200934 | 67 | 185 | 3.0 | 16.0 | 0.00 | 0.18 | 0.18 | 66 | 1012.3 |
| 20260509200434 | 67 | 194 | 9.0 | 12.0 | 0.00 | 0.18 | 0.18 | 65 | 1012.4 |
| 20260509195931 | 67 | 138 | 7.0 | 14.0 | 0.00 | 0.18 | 0.18 | 67 | 1012.4 |
| 20260509195427 | 67 | 162 | 3.0 | 7.0 | 0.00 | 0.18 | 0.18 | 66 | 1012.4 |
| 20260509194926 | 68 | 255 | 7.0 | 18.0 | 0.00 | 0.18 | 0.18 | 65 | 1012.5 |
| 20260509194422 | 68 | 162 | 4.0 | 14.0 | 0.00 | 0.18 | 0.18 | 64 | 1012.6 |
| 20260509193920 | 67 | 175 | 3.0 | 9.0 | 0.00 | 0.18 | 0.18 | 67 | 1012.6 |
| 20260509193419 | 66 | 131 | 8.0 | 14.0 | 0.00 | 0.18 | 0.18 | 67 | 1012.7 |
| 20260509192915 | 66 | 184 | 7.0 | 9.0 | 0.00 | 0.18 | 0.18 | 69 | 1012.7 |
| 20260509192411 | 66 | 173 | 3.0 | 7.0 | 0.00 | 0.18 | 0.18 | 70 | 1013.0 |
| 20260509191907 | 66 | 293 | 5.0 | 21.0 | 0.00 | 0.18 | 0.18 | 72 | 1012.9 |
| 20260509191402 | 67 | 198 | 5.0 | 12.0 | 0.00 | 0.18 | 0.18 | 70 | 1013.1 |
| 20260509190859 | 65 | 135 | 5.0 | 14.0 | 0.00 | 0.18 | 0.18 | 72 | 1013.2 |
| 20260509190356 | 65 | 223 | 8.0 | 12.0 | 0.00 | 0.18 | 0.18 | 73 | 1013.1 |
| 20260509185854 | 65 | 186 | 9.0 | 14.0 | 0.00 | 0.18 | 0.18 | 73 | 1013.3 |
| 20260509185350 | 64 | 202 | 13.0 | 18.0 | 0.00 | 0.18 | 0.18 | 74 | 1013.2 |
| 20260509184847 | 64 | 202 | 6.0 | 12.0 | 0.00 | 0.18 | 0.18 | 73 | 1013.3 |
| 20260509184344 | 64 | 163 | 4.0 | 7.0 | 0.00 | 0.18 | 0.18 | 74 | 1013.5 |
| 20260509183841 | 65 | 203 | 4.0 | 12.0 | 0.00 | 0.18 | 0.18 | 74 | 1013.3 |
| 20260509183336 | 65 | 217 | 5.0 | 7.0 | 0.00 | 0.18 | 0.18 | 74 | 1013.3 |
| 20260509182832 | 63 | 147 | 3.0 | 7.0 | 0.00 | 0.18 | 0.18 | 76 | 1013.4 |
| 20260509182329 | 63 | 201 | 4.0 | 7.0 | 0.00 | 0.18 | 0.18 | 76 | 1013.5 |
| 20260509181827 | 62 | 104 | 3.0 | 12.0 | 0.00 | 0.18 | 0.18 | 78 | 1013.6 |
| 20260509181324 | 63 | 269 | 8.0 | 12.0 | 0.00 | 0.18 | 0.18 | 77 | 1013.7 |
| 20260509180821 | 62 | 211 | 4.0 | 7.0 | 0.00 | 0.18 | 0.18 | 79 | 1013.5 |
| 20260509180317 | 62 | 156 | 0.0 | 5.0 | 0.00 | 0.18 | 0.18 | 79 | 1013.6 |
| 20260509175814 | 61 | 172 | 4.0 | 5.0 | 0.00 | 0.18 | 0.18 | 79 | 1013.6 |
| 20260509175310 | 60 | 217 | 4.0 | 7.0 | 0.00 | 0.18 | 0.18 | 80 | 1013.6 |
| 20260509174806 | 60 | 187 | 4.0 | 7.0 | 0.00 | 0.18 | 0.18 | 81 | 1013.6 |
| 20260509174302 | 60 | 220 | 2.0 | 9.0 | 0.00 | 0.18 | 0.18 | 81 | 1013.6 |
| 20260509173758 | 60 | 176 | 3.0 | 9.0 | 0.00 | 0.18 | 0.18 | 81 | 1013.4 |
| 20260509173253 | 61 | 177 | 2.0 | 12.0 | 0.00 | 0.18 | 0.18 | 81 | 1013.5 |
| 20260509172749 | 61 | 201 | 6.0 | 9.0 | 0.00 | 0.18 | 0.18 | 80 | 1013.7 |
| 20260509172247 | 60 | 194 | 3.0 | 14.0 | 0.00 | 0.18 | 0.18 | 81 | 1013.6 |
| 20260509171742 | 60 | 162 | 3.0 | 7.0 | 0.00 | 0.18 | 0.18 | 82 | 1013.5 |
| 20260509171238 | 61 | 226 | 1.0 | 12.0 | 0.00 | 0.18 | 0.18 | 82 | 1013.5 |
| 20260509170735 | 61 | 131 | 6.0 | 7.0 | 0.00 | 0.18 | 0.18 | 81 | 1013.4 |
| 20260509170231 | 61 | 168 | 6.0 | 7.0 | 0.00 | 0.18 | 0.18 | 81 | 1013.4 |
| 20260509165730 | 61 | 140 | 3.0 | 7.0 | 0.00 | 0.18 | 0.18 | 81 | 1013.5 |
| 20260509165225 | 60 | 206 | 7.0 | 9.0 | 0.00 | 0.18 | 0.18 | 83 | 1013.5 |
| 20260509164721 | 60 | 178 | 2.0 | 14.0 | 0.00 | 0.18 | 0.18 | 84 | 1013.3 |
| 20260509164217 | 62 | 149 | 3.0 | 5.0 | 0.00 | 0.18 | 0.18 | 83 | 1013.1 |
| 20260509163715 | 61 | 190 | 2.0 | 7.0 | 0.00 | 0.18 | 0.18 | 87 | 1013.3 |
| 20260509163211 | 59 | 186 | 2.0 | 12.0 | 0.00 | 0.18 | 0.18 | 86 | 1013.1 |
| 20260509162709 | 58 | 154 | 3.0 | 7.0 | 0.00 | 0.18 | 0.18 | 90 | 1013.3 |
| 20260509162204 | 58 | 161 | 2.0 | 2.0 | 0.00 | 0.18 | 0.18 | 91 | 1013.4 |
| 20260509161700 | 57 | 167 | 0.0 | 7.0 | 0.00 | 0.18 | 0.18 | 92 | 1013.4 |
| 20260509161156 | 56 | 193 | 2.0 | 5.0 | 0.00 | 0.18 | 0.18 | 91 | 1013.2 |
| 20260509160651 | 56 | 210 | 3.0 | 7.0 | 0.00 | 0.18 | 0.18 | 92 | 1013.5 |
| 20260509160147 | 56 | 160 | 0.0 | 2.0 | 0.00 | 0.18 | 0.18 | 93 | 1013.5 |
| 20260509155644 | 56 | 166 | 1.0 | 2.0 | 0.00 | 0.18 | 0.18 | 93 | 1013.4 |
| 20260509155140 | 55 | 197 | 1.0 | 5.0 | 0.00 | 0.18 | 0.18 | 93 | 1013.4 |
| 20260509154635 | 55 | 155 | 3.0 | 5.0 | 0.00 | 0.18 | 0.18 | 94 | 1013.5 |
| 20260509154133 | 55 | 166 | 2.0 | 5.0 | 0.00 | 0.18 | 0.18 | 94 | 1013.4 |
| 20260509153630 | 55 | 165 | 2.0 | 5.0 | 0.00 | 0.18 | 0.18 | 94 | 1013.0 |
| 20260509153127 | 55 | 175 | 1.0 | 2.0 | 0.00 | 0.18 | 0.18 | 95 | 1012.9 |
| 20260509152622 | 54 | 198 | 4.0 | 7.0 | 0.00 | 0.18 | 0.18 | 95 | 1012.9 |
| 20260509152120 | 54 | 166 | 3.0 | 5.0 | 0.00 | 0.18 | 0.18 | 94 | 1012.8 |
| 20260509151616 | 54 | 162 | 2.0 | 7.0 | 0.00 | 0.18 | 0.18 | 95 | 1012.8 |
| 20260509151114 | 54 | 183 | 2.0 | 7.0 | 0.07 | 0.18 | 0.18 | 95 | 1012.9 |
| 20260509150611 | 54 | 136 | 3.0 | 7.0 | 0.07 | 0.18 | 0.18 | 94 | 1013.0 |
| 20260509150110 | 54 | 89 | 3.0 | 7.0 | 0.00 | 0.17 | 0.17 | 94 | 1013.2 |
| 20260509145605 | 54 | 176 | 3.0 | 7.0 | 0.00 | 0.17 | 0.17 | 94 | 1013.4 |
| 20260509145100 | 54 | 204 | 1.0 | 5.0 | 0.07 | 0.17 | 0.17 | 94 | 1013.3 |
| 20260509144558 | 54 | 155 | 2.0 | 7.0 | 0.07 | 0.17 | 0.17 | 94 | 1013.2 |
| 20260509144054 | 53 | 168 | 1.0 | 9.0 | 0.00 | 0.16 | 0.16 | 95 | 1013.3 |
| 20260509143551 | 53 | 173 | 6.0 | 12.0 | 0.05 | 0.16 | 0.16 | 94 | 1013.3 |
| 20260509143049 | 53 | 161 | 3.0 | 5.0 | 0.05 | 0.16 | 0.16 | 95 | 1013.4 |
| 20260509142544 | 53 | 297 | 4.0 | 9.0 | 0.00 | 0.15 | 0.15 | 95 | 1013.5 |
| 20260509142041 | 53 | 178 | 3.0 | 5.0 | 0.00 | 0.15 | 0.15 | 95 | 1013.5 |
| 20260509141537 | 53 | 171 | 0.0 | 2.0 | 0.00 | 0.15 | 0.15 | 94 | 1013.5 |
| 20260509141034 | 53 | 167 | 1.0 | 9.0 | 0.00 | 0.15 | 0.15 | 94 | 1013.6 |
| 20260509140531 | 53 | 179 | 2.0 | 7.0 | 0.00 | 0.15 | 0.15 | 94 | 1013.5 |
| 20260509140029 | 53 | 167 | 0.0 | 5.0 | 0.07 | 0.15 | 0.15 | 94 | 1013.7 |
| 20260509135525 | 53 | 117 | 3.0 | 7.0 | 0.00 | 0.14 | 0.14 | 94 | 1013.5 |
| 20260509135023 | 53 | 178 | 0.0 | 2.0 | 0.05 | 0.14 | 0.14 | 94 | 1013.5 |
| 20260509134520 | 53 | 178 | 2.0 | 5.0 | 0.05 | 0.14 | 0.14 | 94 | 1013.5 |
| 20260509134018 | 53 | 140 | 3.0 | 5.0 | 0.00 | 0.13 | 0.13 | 94 | 1013.6 |
| 20260509133514 | 53 | 184 | 3.0 | 7.0 | 0.00 | 0.13 | 0.13 | 94 | 1013.6 |
| 20260509133012 | 53 | 165 | 2.0 | 5.0 | 0.07 | 0.13 | 0.13 | 94 | 1013.5 |
| 20260509132510 | 53 | 178 | 0.0 | 2.0 | 0.07 | 0.13 | 0.13 | 94 | 1013.6 |
| 20260509132008 | 53 | 190 | 4.0 | 7.0 | 0.00 | 0.12 | 0.12 | 94 | 1013.6 |
| 20260509131504 | 53 | 167 | 0.0 | 5.0 | 0.05 | 0.12 | 0.12 | 94 | 1013.6 |
| 20260509131000 | 53 | 161 | 2.0 | 5.0 | 0.05 | 0.12 | 0.12 | 94 | 1013.7 |
| 20260509130456 | 53 | 179 | 3.0 | 5.0 | 0.00 | 0.11 | 0.11 | 94 | 1013.6 |
| 20260509125953 | 53 | 164 | 0.0 | 5.0 | 0.00 | 0.11 | 0.11 | 94 | 1013.8 |
| 20260509125450 | 53 | 184 | 2.0 | 5.0 | 0.07 | 0.11 | 0.11 | 94 | 1013.7 |
| 20260509124946 | 53 | 206 | 3.0 | 5.0 | 0.07 | 0.11 | 0.11 | 94 | 1013.6 |
| 20260509124443 | 53 | 175 | 2.0 | 5.0 | 0.05 | 0.10 | 0.10 | 94 | 1014.0 |
| 20260509123940 | 53 | 194 | 3.0 | 5.0 | 0.05 | 0.10 | 0.10 | 94 | 1013.9 |
| 20260509123438 | 52 | 157 | 0.0 | 2.0 | 0.00 | 0.09 | 0.09 | 94 | 1013.9 |
| 20260509122933 | 52 | 165 | 3.0 | 7.0 | 0.00 | 0.09 | 0.09 | 94 | 1013.8 |
| 20260509122431 | 52 | 192 | 3.0 | 5.0 | 0.00 | 0.09 | 0.09 | 94 | 1013.9 |
| 20260509121927 | 52 | 189 | 2.0 | 5.0 | 0.07 | 0.09 | 0.09 | 94 | 1013.7 |
| 20260509121424 | 52 | 163 | 1.0 | 7.0 | 0.07 | 0.09 | 0.09 | 94 | 1013.9 |
| 20260509120922 | 52 | 169 | 3.0 | 5.0 | 0.00 | 0.08 | 0.08 | 94 | 1014.1 |
| 20260509120420 | 52 | 168 | 2.0 | 5.0 | 0.00 | 0.08 | 0.08 | 94 | 1014.0 |
| 20260509115918 | 52 | 209 | 1.0 | 2.0 | 0.00 | 0.08 | 0.08 | 94 | 1013.7 |
| 20260509115415 | 52 | 138 | 4.0 | 7.0 | 0.00 | 0.08 | 0.08 | 94 | 1013.9 |
| 20260509114912 | 52 | 116 | 2.0 | 5.0 | 0.05 | 0.08 | 0.08 | 94 | 1013.8 |
| 20260509114411 | 52 | 172 | 5.0 | 9.0 | 0.05 | 0.08 | 0.08 | 93 | 1013.9 |
| 20260509113910 | 52 | 215 | 2.0 | 5.0 | 0.00 | 0.07 | 0.07 | 93 | 1013.7 |
| 20260509113407 | 52 | 166 | 0.0 | 7.0 | 0.07 | 0.07 | 0.07 | 93 | 1013.8 |
| 20260509112903 | 52 | 192 | 2.0 | 5.0 | 0.07 | 0.07 | 0.07 | 93 | 1013.7 |
| 20260509112400 | 52 | 206 | 2.0 | 2.0 | 0.07 | 0.06 | 0.06 | 93 | 1013.7 |
| 20260509111858 | 52 | 179 | 3.0 | 5.0 | 0.12 | 0.06 | 0.06 | 93 | 1013.7 |
| 20260509111354 | 52 | 136 | 5.0 | 7.0 | 0.05 | 0.05 | 0.05 | 92 | 1013.8 |
| 20260509110852 | 52 | 159 | 1.0 | 7.0 | 0.07 | 0.04 | 0.04 | 92 | 1013.7 |
| 20260509110348 | 52 | 210 | 4.0 | 5.0 | 0.00 | 0.03 | 0.03 | 91 | 1013.6 |
| 20260509105846 | 52 | 296 | 8.0 | 12.0 | 0.05 | 0.03 | 0.03 | 91 | 1013.5 |
| 20260509105344 | 52 | 161 | 1.0 | 9.0 | 0.05 | 0.03 | 0.03 | 91 | 1013.5 |
| 20260509104841 | 52 | 163 | 3.0 | 7.0 | 0.00 | 0.02 | 0.02 | 91 | 1013.5 |
| 20260509104337 | 52 | 178 | 0.0 | 9.0 | 0.00 | 0.02 | 0.02 | 90 | 1013.5 |
| 20260509103835 | 52 | 109 | 5.0 | 12.0 | 0.00 | 0.02 | 0.02 | 90 | 1013.5 |
| 20260509103332 | 52 | 167 | 0.0 | 12.0 | 0.00 | 0.02 | 0.02 | 90 | 1013.5 |
| 20260509102831 | 52 | 194 | 3.0 | 9.0 | 0.00 | 0.02 | 0.02 | 90 | 1013.6 |
| 20260509102328 | 52 | 168 | 3.0 | 7.0 | 0.00 | 0.02 | 0.02 | 91 | 1013.6 |
| 20260509101823 | 52 | 211 | 3.0 | 9.0 | 0.00 | 0.02 | 0.02 | 91 | 1013.5 |
| 20260509101320 | 52 | 170 | 2.0 | 7.0 | 0.00 | 0.02 | 0.02 | 90 | 1013.4 |
| 20260509100818 | 52 | 181 | 3.0 | 7.0 | 0.00 | 0.02 | 0.02 | 90 | 1013.5 |
| 20260509100315 | 53 | 149 | 2.0 | 5.0 | 0.07 | 0.02 | 0.02 | 90 | 1013.4 |
| 20260509095811 | 53 | 185 | 4.0 | 9.0 | 0.07 | 0.02 | 0.02 | 90 | 1013.8 |
| 20260509095309 | 53 | 165 | 1.0 | 2.0 | 0.00 | 0.01 | 0.01 | 90 | 1013.6 |
| 20260509094806 | 53 | 166 | 4.0 | 7.0 | 0.00 | 0.01 | 0.01 | 89 | 1013.6 |
| 20260509094302 | 52 | 155 | 3.0 | 12.0 | 0.00 | 0.01 | 0.01 | 90 | 1013.6 |
| 20260509093800 | 52 | 147 | 0.0 | 7.0 | 0.00 | 0.01 | 0.01 | 89 | 1013.8 |
| 20260509093257 | 52 | 164 | 3.0 | 5.0 | 0.00 | 0.01 | 0.01 | 89 | 1013.8 |
| 20260509092755 | 52 | 188 | 3.0 | 9.0 | 0.00 | 0.01 | 0.01 | 89 | 1013.7 |
| 20260509092253 | 52 | 214 | 5.0 | 7.0 | 0.00 | 0.01 | 0.01 | 89 | 1014.0 |
| 20260509091751 | 52 | 159 | 1.0 | 14.0 | 0.00 | 0.01 | 0.01 | 90 | 1014.0 |
| 20260509091247 | 51 | 173 | 1.0 | 7.0 | 0.00 | 0.01 | 0.01 | 92 | 1013.8 |
| 20260509090745 | 51 | 150 | 0.0 | 7.0 | 0.00 | 0.01 | 0.01 | 94 | 1014.0 |
| 20260509090241 | 51 | 170 | 1.0 | 7.0 | 0.05 | 0.01 | 0.01 | 95 | 1013.8 |
| 20260509085740 | 50 | 164 | 0.0 | 2.0 | 0.00 | 0.00 | 0.00 | 96 | 1014.1 |
| 20260509085237 | 50 | 152 | 0.0 | 2.0 | 0.00 | 0.00 | 0.00 | 97 | 1014.0 |
| 20260509084733 | 50 | 164 | 0.0 | 0.0 | 0.00 | 0.00 | 0.00 | 97 | 1014.0 |
| 20260509084229 | 50 | 164 | 0.0 | 0.0 | 0.00 | 0.00 | 0.00 | 97 | 1014.0 |
| 20260509083728 | 50 | 167 | 0.0 | 0.0 | 0.00 | 0.00 | 0.00 | 97 | 1014.2 |
| 20260509083224 | 50 | 133 | 1.0 | 2.0 | 0.00 | 0.00 | 0.00 | 97 | 1014.0 |
| 20260509082721 | 50 | 163 | 0.0 | 0.0 | 0.00 | 0.00 | 0.00 | 97 | 1014.1 |
| 20260509082218 | 50 | 164 | 0.0 | 2.0 | 0.00 | 0.00 | 0.00 | 97 | 1014.1 |
| 20260509081714 | 50 | 162 | 0.0 | 0.0 | 0.00 | 0.00 | 0.00 | 97 | 1013.7 |
| 20260509081212 | 50 | 155 | 0.0 | 0.0 | 0.00 | 0.00 | 0.00 | 97 | 1013.8 |
| 20260509080710 | 50 | 133 | 1.0 | 5.0 | 0.00 | 0.00 | 0.00 | 97 | 1013.5 |
| 20260509080207 | 50 | 174 | 0.0 | 0.0 | 0.00 | 0.00 | 0.00 | 97 | 1013.7 |
| 20260509075705 | 50 | 149 | 1.0 | 5.0 | 0.00 | 0.00 | 0.00 | 97 | 1013.6 |
| 20260509075203 | 50 | 164 | 0.0 | 2.0 | 0.00 | 0.00 | 0.00 | 97 | 1013.9 |
| 20260509074659 | 50 | 152 | 0.0 | 2.0 | 0.00 | 0.00 | 0.00 | 97 | 1013.4 |
| 20260509074156 | 50 | 175 | 1.0 | 2.0 | 0.00 | 0.00 | 0.00 | 97 | 1013.7 |
| 20260509073653 | 50 | 152 | 0.0 | 2.0 | 0.00 | 0.00 | 0.00 | 97 | 1013.3 |
| 20260509073149 | 50 | 159 | 0.0 | 2.0 | 0.00 | 0.00 | 0.00 | 97 | 1013.3 |
| 20260509072646 | 50 | 159 | 0.0 | 0.0 | 0.00 | 0.00 | 0.00 | 97 | 1013.2 |
| 20260509072143 | 50 | 162 | 0.0 | 0.0 | 0.00 | 0.00 | 0.00 | 97 | 1013.1 |
| 20260509071639 | 50 | 161 | 0.0 | 2.0 | 0.00 | 0.00 | 0.00 | 97 | 1013.1 |
| 20260509071137 | 50 | 161 | 0.0 | 0.0 | 0.00 | 0.00 | 0.00 | 97 | 1013.1 |
| 20260509070634 | 50 | 161 | 0.0 | 0.0 | 0.00 | 0.00 | 0.00 | 97 | 1013.2 |
| 20260509070130 | 50 | 161 | 0.0 | 0.0 | 0.00 | 0.00 | 0.00 | 97 | 1013.2 |
| 20260509065626 | 50 | 162 | 0.0 | 0.0 | 0.00 | 0.00 | 0.00 | 97 | 1013.3 |
| 20260509065122 | 50 | 162 | 0.0 | 0.0 | 0.00 | 0.00 | 0.00 | 97 | 1013.4 |
| 20260509064620 | 50 | 159 | 0.0 | 2.0 | 0.00 | 0.00 | 0.00 | 97 | 1013.2 |
| 20260509064118 | 50 | 152 | 3.0 | 5.0 | 0.00 | 0.00 | 0.00 | 97 | 1013.4 |
| 20260509063614 | 50 | 155 | 1.0 | 2.0 | 0.00 | 0.00 | 0.00 | 97 | 1013.6 |
| 20260509063110 | 50 | 162 | 0.0 | 0.0 | 0.00 | 0.00 | 0.00 | 97 | 1013.7 |
| 20260509062608 | 50 | 157 | 0.0 | 2.0 | 0.00 | 0.00 | 0.00 | 97 | 1013.8 |
| 20260509062105 | 50 | 150 | 0.0 | 2.0 | 0.00 | 0.00 | 0.00 | 97 | 1014.0 |
| 20260509061601 | 50 | 149 | 1.0 | 2.0 | 0.00 | 0.00 | 0.00 | 97 | 1014.0 |
| 20260509061059 | 50 | 152 | 1.0 | 2.0 | 0.00 | 0.00 | 0.00 | 97 | 1014.1 |
| 20260509060557 | 50 | 160 | 1.0 | 2.0 | 0.00 | 0.00 | 0.00 | 97 | 1014.0 |
| 20260509060052 | 50 | 152 | 0.0 | 2.0 | 0.00 | 0.00 | 0.00 | 96 | 1014.4 |
| 20260509055548 | 50 | 154 | 0.0 | 2.0 | 0.00 | 0.00 | 0.00 | 96 | 1014.4 |
| 20260509055044 | 50 | 157 | 1.0 | 2.0 | 0.00 | 0.00 | 0.00 | 96 | 1014.4 |
| 20260509054541 | 50 | 145 | 1.0 | 2.0 | 0.00 | 0.00 | 0.00 | 96 | 1014.8 |
| 20260509054038 | 50 | 162 | 0.0 | 2.0 | 0.00 | 0.00 | 0.00 | 96 | 1014.4 |
| 20260509053537 | 50 | 164 | 0.0 | 2.0 | 0.00 | 0.00 | 0.00 | 96 | 1014.5 |
| 20260509053033 | 50 | 154 | 1.0 | 2.0 | 0.00 | 0.00 | 0.00 | 96 | 1014.6 |
| 20260509052531 | 50 | 159 | 0.0 | 2.0 | 0.00 | 0.00 | 0.00 | 96 | 1014.6 |
| 20260509052029 | 50 | 154 | 1.0 | 2.0 | 0.00 | 0.00 | 0.00 | 96 | 1014.8 |
| 20260509051527 | 50 | 162 | 0.0 | 0.0 | 0.00 | 0.00 | 0.00 | 96 | 1014.6 |
| 20260509051024 | 50 | 159 | 0.0 | 0.0 | 0.00 | 0.00 | 0.00 | 96 | 1014.6 |
| 20260509050520 | 50 | 163 | 0.0 | 0.0 | 0.00 | 0.00 | 0.00 | 96 | 1014.9 |
| 20260509050017 | 50 | 162 | 0.0 | 2.0 | 0.00 | 0.00 | 0.00 | 96 | 1014.5 |
| 20260509045514 | 50 | 171 | 1.0 | 2.0 | 0.00 | 0.00 | 0.00 | 96 | 1014.6 |
| 20260509045011 | 50 | 148 | 2.0 | 2.0 | 0.00 | 0.00 | 0.00 | 96 | 1014.6 |
| 20260509044509 | 50 | 163 | 0.0 | 2.0 | 0.00 | 0.00 | 0.00 | 96 | 1014.5 |
| 20260509044006 | 50 | 156 | 0.0 | 2.0 | 0.00 | 0.00 | 0.00 | 96 | 1014.6 |
| 20260509043502 | 50 | 155 | 1.0 | 2.0 | 0.00 | 0.00 | 0.00 | 96 | 1014.6 |
| 20260509042957 | 50 | 163 | 0.0 | 0.0 | 0.00 | 0.00 | 0.00 | 95 | 1014.7 |
| 20260509042454 | 50 | 148 | 2.0 | 2.0 | 0.00 | 0.00 | 0.00 | 95 | 1014.8 |
| 20260509041950 | 51 | 152 | 0.0 | 2.0 | 0.00 | 0.00 | 0.00 | 95 | 1014.9 |
| 20260509041447 | 51 | 151 | 0.0 | 2.0 | 0.00 | 0.00 | 0.00 | 95 | 1015.0 |
| 20260509040945 | 51 | 161 | 0.0 | 0.0 | 0.00 | 0.00 | 0.00 | 95 | 1015.1 |
| 20260509040443 | 51 | 164 | 0.0 | 2.0 | 0.07 | 0.00 | 0.00 | 95 | 1014.9 |
| 20260509035939 | 51 | 162 | 0.0 | 2.0 | 0.07 | 0.02 | 0.02 | 94 | 1015.2 |
| 20260509035436 | 51 | 160 | 0.0 | 0.0 | 0.00 | 0.01 | 0.01 | 94 | 1015.1 |
| 20260509034933 | 51 | 162 | 0.0 | 2.0 | 0.00 | 0.01 | 0.01 | 94 | 1015.4 |
| 20260509034431 | 51 | 159 | 1.0 | 2.0 | 0.00 | 0.01 | 0.01 | 94 | 1015.6 |
| 20260509033928 | 51 | 163 | 0.0 | 0.0 | 0.00 | 0.01 | 0.01 | 94 | 1015.7 |
| 20260509033425 | 51 | 150 | 0.0 | 2.0 | 0.00 | 0.01 | 0.01 | 94 | 1015.6 |
| 20260509032921 | 51 | 154 | 0.0 | 0.0 | 0.00 | 0.01 | 0.01 | 94 | 1015.8 |
| 20260509032419 | 51 | 170 | 1.0 | 2.0 | 0.00 | 0.01 | 0.01 | 94 | 1015.9 |
| 20260509031917 | 51 | 163 | 0.0 | 0.0 | 0.00 | 0.01 | 0.01 | 94 | 1016.0 |
| 20260509031414 | 51 | 153 | 0.0 | 2.0 | 0.00 | 0.01 | 0.01 | 94 | 1015.8 |
| 20260509030911 | 51 | 150 | 1.0 | 2.0 | 0.00 | 0.01 | 0.01 | 94 | 1015.9 |
| 20260509030409 | 51 | 152 | 1.0 | 2.0 | 0.00 | 0.01 | 0.01 | 93 | 1016.2 |
| 20260509025906 | 51 | 163 | 0.0 | 2.0 | 0.00 | 0.01 | 0.01 | 93 | 1016.3 |
| 20260509025401 | 52 | 154 | 0.0 | 0.0 | 0.00 | 0.01 | 0.01 | 92 | 1016.2 |
| 20260509024857 | 52 | 171 | 0.0 | 2.0 | 0.00 | 0.01 | 0.01 | 92 | 1016.0 |
| 20260509024353 | 52 | 168 | 0.0 | 0.0 | 0.00 | 0.01 | 0.01 | 92 | 1016.2 |
| 20260509023850 | 52 | 150 | 0.0 | 5.0 | 0.00 | 0.01 | 0.01 | 92 | 1016.3 |
| 20260509023348 | 51 | 165 | 0.0 | 2.0 | 0.00 | 0.01 | 0.01 | 92 | 1016.2 |
| 20260509022844 | 51 | 142 | 3.0 | 5.0 | 0.00 | 0.01 | 0.01 | 92 | 1016.4 |
| 20260509022341 | 52 | 154 | 1.0 | 2.0 | 0.05 | 0.01 | 0.01 | 91 | 1016.4 |
| 20260509021838 | 52 | 150 | 0.0 | 2.0 | 0.05 | 0.01 | 0.01 | 91 | 1016.2 |
| 20260509021335 | 52 | 150 | 2.0 | 2.0 | 0.00 | 0.00 | 0.00 | 91 | 1016.2 |
| 20260509020833 | 52 | 142 | 3.0 | 5.0 | 0.00 | 0.00 | 0.00 | 90 | 1015.8 |
| 20260509020331 | 52 | 183 | 0.0 | 0.0 | 0.00 | 0.00 | 0.00 | 90 | 1015.9 |
| 20260509015828 | 52 | 155 | 1.0 | 2.0 | 0.00 | 0.00 | 0.00 | 89 | 1015.9 |
| 20260509015326 | 52 | 162 | 1.0 | 2.0 | 0.00 | 0.00 | 0.00 | 89 | 1015.7 |
| 20260509014823 | 52 | 154 | 0.0 | 2.0 | 0.00 | 0.00 | 0.00 | 88 | 1015.8 |
| 20260509014320 | 52 | 161 | 2.0 | 5.0 | 0.00 | 0.00 | 0.00 | 88 | 1015.7 |
| 20260509013816 | 52 | 153 | 1.0 | 2.0 | 0.00 | 0.00 | 0.00 | 87 | 1015.5 |
| 20260509013313 | 53 | 154 | 0.0 | 0.0 | 0.00 | 0.00 | 0.00 | 86 | 1015.4 |
| 20260509012809 | 53 | 149 | 2.0 | 2.0 | 0.00 | 0.00 | 0.00 | 86 | 1015.2 |
| 20260509012307 | 53 | 145 | 2.0 | 5.0 | 0.00 | 0.00 | 0.00 | 85 | 1015.2 |
| 20260509011803 | 53 | 150 | 0.0 | 2.0 | 0.00 | 0.00 | 0.00 | 85 | 1015.3 |
| 20260509011300 | 53 | 162 | 1.0 | 2.0 | 0.00 | 0.00 | 0.00 | 85 | 1015.3 |
| 20260509010758 | 53 | 159 | 0.0 | 0.0 | 0.00 | 0.00 | 0.00 | 84 | 1015.0 |
| 20260509010254 | 53 | 149 | 1.0 | 5.0 | 0.00 | 0.00 | 0.00 | 85 | 1014.9 |
| 20260509005752 | 53 | 155 | 1.0 | 2.0 | 0.00 | 0.00 | 0.00 | 84 | 1014.7 |
| 20260509005250 | 53 | 155 | 0.0 | 2.0 | 0.00 | 0.00 | 0.00 | 84 | 1014.7 |
| 20260509004749 | 53 | 163 | 0.0 | 2.0 | 0.00 | 0.00 | 0.00 | 83 | 1014.5 |
| 20260509004246 | 53 | 161 | 2.0 | 5.0 | 0.00 | 0.00 | 0.00 | 84 | 1014.5 |
| 20260509003745 | 53 | 162 | 0.0 | 2.0 | 0.00 | 0.00 | 0.00 | 83 | 1014.6 |
| 20260509003242 | 53 | 161 | 0.0 | 0.0 | 0.00 | 0.00 | 0.00 | 83 | 1014.5 |
| 20260509002739 | 53 | 164 | 0.0 | 2.0 | 0.00 | 0.00 | 0.00 | 83 | 1014.6 |
| 20260509002236 | 53 | 164 | 2.0 | 2.0 | 0.00 | 0.00 | 0.00 | 83 | 1014.8 |
| 20260509001734 | 54 | 160 | 0.0 | 2.0 | 0.00 | 0.00 | 0.00 | 83 | 1014.8 |
| 20260509001230 | 54 | 161 | 0.0 | 2.0 | 0.00 | 0.00 | 0.00 | 81 | 1014.8 |
| 20260509000728 | 54 | 155 | 1.0 | 2.0 | 0.00 | 0.00 | 0.00 | 83 | 1014.8 |
| 20260509000226 | 54 | 145 | 2.0 | 5.0 | 0.00 | 0.00 | 0.00 | 83 | 1014.7 |
| 20260508235722 | 54 | 145 | 1.0 | 2.0 | 0.00 | 0.00 | 0.00 | 83 | 1014.6 |
| 20260508235218 | 55 | 155 | 1.0 | 2.0 | 0.00 | 0.00 | 0.00 | 82 | 1014.7 |
| 20260508234716 | 55 | 155 | 2.0 | 2.0 | 0.00 | 0.00 | 0.00 | 82 | 1014.8 |
| 20260508234212 | 55 | 164 | 0.0 | 2.0 | 0.00 | 0.00 | 0.00 | 79 | 1014.9 |
| 20260508233711 | 55 | 157 | 2.0 | 2.0 | 0.00 | 0.00 | 0.00 | 81 | 1014.8 |
| 20260508233209 | 55 | 150 | 0.0 | 2.0 | 0.00 | 0.00 | 0.00 | 82 | 1014.7 |
| 20260508232706 | 55 | 153 | 1.0 | 5.0 | 0.00 | 0.00 | 0.00 | 82 | 1014.7 |
| 20260508232202 | 55 | 153 | 3.0 | 5.0 | 0.00 | 0.00 | 0.00 | 80 | 1014.9 |
| 20260508231701 | 55 | 144 | 2.0 | 2.0 | 0.00 | 0.00 | 0.00 | 80 | 1014.9 |
| 20260508231157 | 55 | 152 | 1.0 | 2.0 | 0.00 | 0.00 | 0.00 | 82 | 1014.9 |
| 20260508230654 | 55 | 148 | 1.0 | 5.0 | 0.00 | 0.00 | 0.00 | 81 | 1014.9 |
| 20260508230150 | 56 | 155 | 2.0 | 2.0 | 0.00 | 0.00 | 0.00 | 78 | 1015.0 |
| 20260508225648 | 56 | 157 | 3.0 | 5.0 | 0.00 | 0.00 | 0.00 | 77 | 1015.2 |
| 20260508225144 | 56 | 140 | 2.0 | 5.0 | 0.00 | 0.00 | 0.00 | 80 | 1015.1 |
| 20260508224642 | 56 | 142 | 2.0 | 5.0 | 0.00 | 0.00 | 0.00 | 78 | 1015.1 |
| 20260508224139 | 56 | 148 | 1.0 | 2.0 | 0.00 | 0.00 | 0.00 | 76 | 1015.2 |
| 20260508223637 | 56 | 139 | 4.0 | 5.0 | 0.00 | 0.00 | 0.00 | 77 | 1015.0 |
| 20260508223134 | 56 | 155 | 2.0 | 5.0 | 0.00 | 0.00 | 0.00 | 75 | 1015.1 |
| 20260508222631 | 57 | 160 | 2.0 | 2.0 | 0.00 | 0.00 | 0.00 | 76 | 1014.9 |
| 20260508222128 | 57 | 150 | 2.0 | 2.0 | 0.00 | 0.00 | 0.00 | 77 | 1014.9 |
| 20260508221624 | 57 | 146 | 1.0 | 2.0 | 0.00 | 0.00 | 0.00 | 76 | 1014.7 |
| 20260508221120 | 57 | 145 | 3.0 | 5.0 | 0.00 | 0.00 | 0.00 | 74 | 1014.9 |
| 20260508220617 | 57 | 156 | 2.0 | 5.0 | 0.00 | 0.00 | 0.00 | 74 | 1014.7 |
| 20260508220114 | 59 | 166 | 2.0 | 2.0 | 0.00 | 0.00 | 0.00 | 75 | 1014.8 |
| 20260508215611 | 59 | 162 | 0.0 | 0.0 | 0.00 | 0.00 | 0.00 | 70 | 1014.8 |
| 20260508215107 | 59 | 152 | 0.0 | 2.0 | 0.00 | 0.00 | 0.00 | 69 | 1014.9 |
| 20260508214604 | 60 | 151 | 2.0 | 2.0 | 0.00 | 0.00 | 0.00 | 67 | 1015.0 |
| 20260508214101 | 60 | 162 | 0.0 | 0.0 | 0.00 | 0.00 | 0.00 | 61 | 1014.9 |
| 20260508213558 | 60 | 156 | 0.0 | 0.0 | 0.00 | 0.00 | 0.00 | 59 | 1014.9 |
| 20260508213054 | 61 | 169 | 1.0 | 2.0 | 0.00 | 0.00 | 0.00 | 60 | 1015.0 |
| 20260508212551 | 61 | 127 | 1.0 | 5.0 | 0.00 | 0.00 | 0.00 | 60 | 1015.1 |
| 20260508212047 | 61 | 162 | 0.0 | 2.0 | 0.00 | 0.00 | 0.00 | 60 | 1015.2 |
| 20260508211543 | 60 | 161 | 0.0 | 0.0 | 0.00 | 0.00 | 0.00 | 59 | 1015.2 |
| 20260508211039 | 61 | 156 | 1.0 | 2.0 | 0.00 | 0.00 | 0.00 | 63 | 1015.3 |
| 20260508210536 | 60 | 164 | 0.0 | 5.0 | 0.00 | 0.00 | 0.00 | 63 | 1015.4 |
| 20260508210033 | 60 | 164 | 0.0 | 2.0 | 0.00 | 0.00 | 0.00 | 63 | 1015.4 |
| 20260508205530 | 59 | 165 | 0.0 | 0.0 | 0.00 | 0.00 | 0.00 | 68 | 1015.6 |
| 20260508205026 | 59 | 164 | 1.0 | 2.0 | 0.00 | 0.00 | 0.00 | 73 | 1015.4 |
| 20260508204523 | 59 | 167 | 0.0 | 2.0 | 0.00 | 0.00 | 0.00 | 67 | 1015.5 |
| 20260508204019 | 59 | 163 | 0.0 | 0.0 | 0.00 | 0.00 | 0.00 | 66 | 1015.6 |
| 20260508203515 | 59 | 164 | 0.0 | 2.0 | 0.00 | 0.00 | 0.00 | 66 | 1015.7 |
| 20260508203011 | 59 | 164 | 1.0 | 2.0 | 0.00 | 0.00 | 0.00 | 66 | 1015.8 |
| 20260508202508 | 59 | 163 | 0.0 | 0.0 | 0.00 | 0.00 | 0.00 | 67 | 1015.8 |
| 20260508202005 | 59 | 170 | 1.0 | 2.0 | 0.00 | 0.00 | 0.00 | 67 | 1016.1 |